Location: Newark
(45.6833°N, 12.6333°E)
Time: 03:53:03
(UTC+00:00)

X-37B - Visible Passes

Search period start: 26 February 2021 00:00
Search period end: 08 March 2021 00:00
Orbit: 383 x 391 km, 45.0° (Epoch: 10 February)

Date Brightness Start Highest point End Pass type
(mag) Time Alt. Az. Time Alt. Az. Time Alt. Az.
26 Feb 0.5 04:07:49 75° S 04:07:49 75° S 04:10:56 10° ESE visible
27 Feb 3.8 03:12:04 14° E 03:12:04 14° E 03:12:36 10° E visible
27 Feb 1.1 04:44:21 23° W 04:45:57 43° SSW 04:48:58 10° SE visible
28 Feb 1.8 03:48:39 37° SE 03:48:39 37° SE 03:50:47 10° ESE visible
01 Mar 1.6 04:25:18 28° SW 04:25:43 29° SSW 04:28:31 10° SE visible
02 Mar 3.2 03:29:45 16° SE 03:29:45 16° SE 03:30:30 10° SE visible
02 Mar 2.9 05:02:22 10° WSW 05:03:34 12° SW 05:04:44 10° SSW visible
03 Mar 2.8 04:06:36 16° S 04:06:36 16° S 04:07:46 10° SSE visible
